QPF
0.17 0.13 0.10 0.07 0.05 0.03 0.01 0.01 0.01 0.01 0.02 0.02 0.03 0.03 0.04 0.04 0.03 0.03 0.04 0.05 0.06 0.08 0.08 0.08 0.07 0.06 0.06 0.06 0.06 0.05 0.04 0.04 0.03 0.03 0.03 0.03 0.03 0.03 0.03 0.03 0.03 0.03 0.04
0.15 0.14 0.10 0.07 0.05 0.03 0.02 0.01 0.01 0.01 0.02 0.02 0.02 0.03 0.04 0.04 0.04 0.03 0.03 0.03 0.03 0.03 0.03 0.04 0.05 0.05 0.06 0.06 0.06 0.05 0.05 0.04 0.04 0.04 0.03 0.03 0.03 0.03 0.03 0.03 0.03 0.03 0.04
0.13 0.13 0.11 0.07 0.05 0.04 0.03 0.02 0.01 0.01 0.01 0.02 0.02 0.03 0.03 0.04 0.04 0.03 0.03 0.03 0.02 0.02 0.02 0.03 0.03 0.04 0.05 0.07 0.07 0.06 0.06 0.06 0.06 0.06 0.06 0.04 0.04 0.04 0.03 0.03 0.02 0.03 0.03
0.12 0.12 0.11 0.08 0.05 0.04 0.03 0.02 0.01 0.01 0.01 0.01 0.01 0.02 0.03 0.03 0.03 0.03 0.03 0.04 0.03 0.01 0.02 0.02 0.02 0.02 0.03 0.05 0.07 0.09 0.08 0.07 0.07 0.07 0.08 0.07 0.05 0.05 0.04 0.03 0.03 0.03 0.03
0.13 0.12 0.12 0.10 0.07 0.05 0.04 0.03 0.02 0.02 0.02 0.02 0.01 0.02 0.03 0.03 0.03 0.03 0.02 0.02 0.03 0.02 0.01 0.02 0.02 0.02 0.03 0.03 0.04 0.06 0.07 0.08 0.08 0.08 0.08 0.09 0.08 0.07 0.05 0.05 0.04 0.03 0.03
0.12 0.12 0.11 0.09 0.07 0.06 0.06 0.06 0.05 0.04 0.04 0.02 0.02 0.02 0.02 0.03 0.03 0.03 0.02 0.02 0.02 0.03 0.02 0.02 0.03 0.03 0.03 0.04 0.04 0.04 0.04 0.05 0.06 0.08 0.08 0.08 0.09 0.08 0.07 0.05 0.04 0.04 0.03
0.10 0.10 0.10 0.09 0.07 0.07 0.06 0.07 0.07 0.06 0.05 0.03 0.03 0.03 0.03 0.04 0.03 0.03 0.03 0.03 0.03 0.03 0.03 0.04 0.04 0.04 0.03 0.03 0.03 0.04 0.04 0.03 0.03 0.04 0.06 0.07 0.09 0.09 0.07 0.06 0.05 0.04 0.03
0.09 0.10 0.08 0.07 0.06 0.06 0.07 0.07 0.08 0.07 0.06 0.05 0.04 0.04 0.04 0.04 0.03 0.03 0.02 0.02 0.03 0.03 0.03 0.04 0.04 0.04 0.04 0.03 0.02 0.03 0.03 0.03 0.03 0.02 0.03 0.04 0.05 0.08 0.08 0.07 0.06 0.05 0.05
0.06 0.08 0.10 0.07 0.06 0.05 0.05 0.06 0.06 0.07 0.07 0.06 0.05 0.06 0.05 0.04 0.03 0.02 0.02 0.01 0.01 0.02 0.03 0.04 0.04 0.04 0.04 0.04 0.02 0.02 0.03 0.03 0.03 0.03 0.02 0.02 0.03 0.05 0.07 0.07 0.06 0.06 0.06
0.04 0.04 0.07 0.10 0.09 0.06 0.05 0.05 0.05 0.06 0.06 0.06 0.06 0.04 0.03 0.02 0.02 0.02 0.02 0.01 0.02 0.02 0.02 0.03 0.03 0.04 0.03 0.03 0.03 0.02 0.02 0.02 0.03 0.03 0.03 0.03 0.03 0.05 0.07 0.08 0.08 0.08 0.07
0.03 0.03 0.03 0.05 0.09 0.10 0.07 0.05 0.04 0.05 0.05 0.05 0.05 0.04 0.03 0.02 0.02 0.01 0.01 0.01 0.02 0.02 0.01 0.02 0.03 0.04 0.04 0.03 0.03 0.02 0.01 0.02 0.03 0.04 0.04 0.04 0.04 0.04 0.07 0.08 0.10 0.10 0.09
0.02 0.02 0.02 0.02 0.04 0.06 0.08 0.06 0.04 0.04 0.05 0.04 0.04 0.04 0.03 0.03 0.02 0.01 0.01 0.01 0.01 0.01 0.01 0.01 0.02 0.03 0.04 0.04 0.04 0.03 0.02 0.02 0.03 0.03 0.04 0.05 0.04 0.04 0.05 0.07 0.08 0.09 0.08
0.02 0.02 0.02 0.02 0.02 0.03 0.05 0.07 0.06 0.04 0.03 0.03 0.04 0.04 0.04 0.03 0.03 0.03 0.03 0.02 0.02 0.02 0.02 0.02 0.02 0.02 0.03 0.04 0.04 0.03 0.02 0.02 0.03 0.03 0.04 0.05 0.05 0.04 0.04 0.05 0.07 0.08 0.07
0.04 0.03 0.02 0.02 0.02 0.02 0.03 0.04 0.06 0.06 0.05 0.04 0.04 0.04 0.04 0.04 0.04 0.03 0.03 0.03 0.03 0.03 0.03 0.02 0.02 0.03 0.03 0.05 0.05 0.03 0.02 0.02 0.02 0.02 0.03 0.04 0.05 0.05 0.04 0.04 0.05 0.06 0.05
0.04 0.04 0.04 0.04 0.03 0.03 0.03 0.04 0.04 0.06 0.07 0.07 0.06 0.06 0.05 0.04 0.04 0.03 0.03 0.03 0.03 0.03 0.03 0.02 0.03 0.04 0.03 0.03 0.04 0.04 0.03 0.02 0.02 0.02 0.02 0.03 0.03 0.04 0.04 0.04 0.04 0.04 0.04
0.05 0.04 0.03 0.03 0.03 0.03 0.03 0.04 0.05 0.05 0.06 0.07 0.08 0.08 0.08 0.07 0.06 0.04 0.04 0.04 0.03 0.03 0.03 0.02 0.02 0.02 0.02 0.03 0.04 0.04 0.04 0.04 0.03 0.03 0.03 0.02 0.03 0.03 0.04 0.04 0.04 0.03 0.03
0.06 0.06 0.05 0.04 0.03 0.03 0.03 0.03 0.04 0.04 0.04 0.05 0.06 0.07 0.07 0.08 0.08 0.07 0.06 0.05 0.05 0.04 0.03 0.02 0.02 0.02 0.02 0.03 0.04 0.05 0.05 0.05 0.04 0.04 0.03 0.03 0.03 0.03 0.03 0.03 0.04 0.04 0.03
0.05 0.04 0.04 0.04 0.04 0.03 0.04 0.03 0.03 0.04 0.04 0.04 0.04 0.05 0.06 0.07 0.08 0.08 0.07 0.06 0.05 0.04 0.04 0.03 0.02 0.02 0.02 0.02 0.03 0.03 0.04 0.05 0.06 0.06 0.05 0.04 0.03 0.03 0.03 0.03 0.03 0.03 0.03
0.04 0.04 0.04 0.03 0.04 0.04 0.04 0.03 0.03 0.02 0.02 0.02 0.02 0.02 0.03 0.04 0.04 0.05 0.06 0.06 0.05 0.05 0.05 0.04 0.03 0.02 0.02 0.02 0.02 0.03 0.03 0.03 0.04 0.05 0.06 0.05 0.04 0.03 0.03 0.03 0.03 0.02 0.02
0.04 0.04 0.04 0.04 0.04 0.04 0.04 0.04 0.04 0.03 0.02 0.02 0.02 0.02 0.02 0.02 0.03 0.04 0.04 0.04 0.05 0.05 0.05 0.04 0.03 0.02 0.02 0.02 0.02 0.03 0.03 0.04 0.04 0.04 0.05 0.05 0.05 0.04 0.03 0.03 0.04 0.03 0.02
0.03 0.04 0.04 0.04 0.04 0.04 0.04 0.04 0.04 0.03 0.03 0.03 0.03 0.02 0.02 0.03 0.03 0.04 0.04 0.05 0.05 0.05 0.05 0.05 0.04 0.03 0.02 0.02 0.02 0.03 0.03 0.03 0.04 0.05 0.06 0.06 0.06 0.05 0.04 0.03 0.03 0.03 0.03
0.04 0.04 0.04 0.04 0.03 0.04 0.04 0.04 0.04 0.04 0.03 0.03 0.02 0.02 0.02 0.03 0.03 0.03 0.04 0.05 0.06 0.06 0.06 0.05 0.04 0.03 0.03 0.02 0.02 0.02 0.03 0.03 0.04 0.04 0.05 0.06 0.06 0.06 0.04 0.03 0.03 0.02 0.02
0.05 0.05 0.05 0.06 0.05 0.04 0.04 0.04 0.04 0.04 0.04 0.03 0.03 0.02 0.02 0.02 0.02 0.02 0.03 0.04 0.04 0.05 0.05 0.06 0.05 0.03 0.03 0.02 0.02 0.02 0.02 0.02 0.02 0.03 0.04 0.06 0.06 0.06 0.04 0.03 0.03 0.03 0.02
0.06 0.05 0.05 0.06 0.06 0.06 0.05 0.04 0.04 0.03 0.03 0.03 0.03 0.03 0.02 0.02 0.02 0.02 0.02 0.03 0.03 0.03 0.03 0.03 0.03 0.02 0.02 0.02 0.02 0.02 0.02 0.02 0.02 0.02 0.04 0.06 0.06 0.07 0.05 0.04 0.04 0.03 0.03
0.06 0.06 0.06 0.05 0.06 0.06 0.06 0.05 0.05 0.04 0.04 0.03 0.03 0.02 0.02 0.02 0.02 0.03 0.03 0.03 0.03 0.03 0.03 0.03 0.03 0.02 0.02 0.02 0.03 0.03 0.03 0.03 0.03 0.04 0.04 0.05 0.06 0.06 0.07 0.06 0.05 0.05 0.04
0.05 0.06 0.06 0.06 0.05 0.05 0.05 0.05 0.06 0.06 0.05 0.04 0.03 0.02 0.02 0.02 0.03 0.03 0.04 0.04 0.03 0.03 0.03 0.03 0.03 0.02 0.02 0.02 0.03 0.04 0.04 0.04 0.04 0.04 0.03 0.03 0.04 0.05 0.08 0.08 0.07 0.06 0.06
MSLP
1028.82 1028.84 1028.82 1028.73 1028.58 1028.36 1028.08 1027.77 1027.45 1027.15 1026.90 1026.73 1026.64 1026.63 1026.68 1026.77 1026.83 1026.84 1026.75 1026.53 1026.18 1025.72 1025.18 1024.60 1024.04 1023.53 1023.11 1022.78 1022.53 1022.35 1022.21 1022.07 1021.91 1021.73 1021.50 1021.24 1020.95 1020.64 1020.31 1019.96 1019.60 1019.22 1018.84
1029.17 1029.16 1029.10 1029.00 1028.85 1028.65 1028.40 1028.11 1027.82 1027.53 1027.29 1027.12 1027.04 1027.04 1027.11 1027.22 1027.34 1027.41 1027.39 1027.24 1026.97 1026.57 1026.07 1025.51 1024.94 1024.40 1023.91 1023.49 1023.14 1022.84 1022.58 1022.33 1022.08 1021.82 1021.55 1021.28 1021.00 1020.72 1020.44 1020.16 1019.84 1019.50 1019.14
1029.50 1029.43 1029.33 1029.22 1029.07 1028.90 1028.70 1028.46 1028.21 1027.97 1027.75 1027.59 1027.51 1027.50 1027.57 1027.69 1027.83 1027.93 1027.96 1027.88 1027.67 1027.34 1026.91 1026.40 1025.85 1025.31 1024.79 1024.31 1023.87 1023.46 1023.08 1022.71 1022.35 1021.99 1021.65 1021.33 1021.04 1020.77 1020.51 1020.25 1019.99 1019.69 1019.36
1029.83 1029.70 1029.57 1029.43 1029.30 1029.16 1029.01 1028.85 1028.66 1028.47 1028.30 1028.15 1028.06 1028.04 1028.08 1028.18 1028.30 1028.41 1028.46 1028.42 1028.27 1028.01 1027.65 1027.21 1026.72 1026.21 1025.69 1025.19 1024.69 1024.21 1023.72 1023.24 1022.77 1022.30 1021.86 1021.46 1021.10 1020.78 1020.51 1020.25 1019.99 1019.72 1019.42
1030.18 1030.00 1029.83 1029.68 1029.56 1029.47 1029.38 1029.28 1029.17 1029.04 1028.91 1028.78 1028.68 1028.63 1028.64 1028.69 1028.77 1028.85 1028.89 1028.87 1028.77 1028.57 1028.29 1027.93 1027.51 1027.05 1026.58 1026.08 1025.57 1025.04 1024.49 1023.91 1023.33 1022.75 1022.19 1021.67 1021.21 1020.80 1020.45 1020.15 1019.87 1019.59 1019.31
1030.55 1030.33 1030.13 1029.97 1029.87 1029.81 1029.79 1029.76 1029.72 1029.65 1029.55 1029.44 1029.34 1029.26 1029.22 1029.22 1029.24 1029.28 1029.30 1029.28 1029.20 1029.05 1028.83 1028.55 1028.21 1027.83 1027.41 1026.95 1026.45 1025.91 1025.32 1024.68 1024.01 1023.32 1022.64 1021.99 1021.40 1020.87 1020.40 1020.00 1019.65 1019.34 1019.05
1030.89 1030.65 1030.44 1030.29 1030.21 1030.19 1030.21 1030.25 1030.27 1030.25 1030.19 1030.11 1030.00 1029.91 1029.83 1029.78 1029.75 1029.75 1029.74 1029.71 1029.64 1029.52 1029.34 1029.12 1028.85 1028.54 1028.18 1027.77 1027.31 1026.78 1026.17 1025.50 1024.76 1023.99 1023.20 1022.42 1021.69 1021.01 1020.41 1019.89 1019.45 1019.07 1018.75
1031.18 1030.95 1030.75 1030.61 1030.56 1030.57 1030.63 1030.71 1030.78 1030.81 1030.79 1030.73 1030.64 1030.54 1030.45 1030.37 1030.32 1030.28 1030.25 1030.20 1030.13 1030.03 1029.88 1029.69 1029.47 1029.20 1028.89 1028.53 1028.10 1027.59 1026.99 1026.31 1025.53 1024.70 1023.83 1022.96 1022.10 1021.30 1020.56 1019.92 1019.37 1018.92 1018.56
1031.39 1031.19 1031.02 1030.91 1030.88 1030.92 1031.01 1031.12 1031.22 1031.29 1031.31 1031.28 1031.22 1031.14 1031.07 1031.00 1030.94 1030.90 1030.86 1030.81 1030.73 1030.63 1030.48 1030.31 1030.09 1029.84 1029.55 1029.21 1028.80 1028.31 1027.73 1027.06 1026.28 1025.43 1024.52 1023.59 1022.66 1021.76 1020.93 1020.19 1019.55 1019.02 1018.61
1031.54 1031.38 1031.25 1031.17 1031.16 1031.22 1031.33 1031.46 1031.58 1031.67 1031.73 1031.74 1031.73 1031.70 1031.66 1031.63 1031.61 1031.59 1031.57 1031.52 1031.44 1031.33 1031.17 1030.98 1030.75 1030.48 1030.18 1029.83 1029.42 1028.94 1028.38 1027.73 1026.98 1026.15 1025.25 1024.31 1023.36 1022.43 1021.55 1020.75 1020.06 1019.48 1019.02
1031.63 1031.52 1031.44 1031.39 1031.41 1031.48 1031.59 1031.72 1031.85 1031.96 1032.04 1032.10 1032.14 1032.17 1032.20 1032.23 1032.27 1032.30 1032.31 1032.28 1032.21 1032.08 1031.91 1031.68 1031.41 1031.10 1030.76 1030.38 1029.95 1029.47 1028.93 1028.31 1027.60 1026.82 1025.98 1025.09 1024.18 1023.28 1022.41 1021.61 1020.90 1020.30 1019.82
1031.70 1031.64 1031.59 1031.58 1031.61 1031.68 1031.79 1031.91 1032.03 1032.15 1032.25 1032.35 1032.44 1032.53 1032.63 1032.74 1032.85 1032.94 1032.99 1033.00 1032.94 1032.81 1032.61 1032.35 1032.03 1031.67 1031.28 1030.86 1030.40 1029.92 1029.38 1028.80 1028.15 1027.45 1026.69 1025.89 1025.07 1024.25 1023.46 1022.71 1022.02 1021.43 1020.93
1031.77 1031.74 1031.73 1031.74 1031.77 1031.83 1031.92 1032.02 1032.13 1032.24 1032.35 1032.47 1032.60 1032.75 1032.91 1033.09 1033.26 1033.41 1033.52 1033.57 1033.54 1033.42 1033.21 1032.92 1032.57 1032.16 1031.72 1031.26 1030.78 1030.28 1029.76 1029.21 1028.63 1028.02 1027.37 1026.69 1025.99 1025.28 1024.59 1023.93 1023.31 1022.75 1022.26
1031.83 1031.83 1031.83 1031.85 1031.88 1031.93 1031.99 1032.07 1032.15 1032.24 1032.34 1032.46 1032.61 1032.79 1032.99 1033.22 1033.45 1033.65 1033.81 1033.90 1033.90 1033.81 1033.61 1033.32 1032.95 1032.53 1032.07 1031.58 1031.08 1030.58 1030.08 1029.58 1029.06 1028.53 1027.98 1027.43 1026.86 1026.28 1025.71 1025.15 1024.62 1024.12 1023.66
1031.85 1031.87 1031.88 1031.90 1031.92 1031.95 1031.99 1032.03 1032.08 1032.14 1032.22 1032.33 1032.48 1032.66 1032.88 1033.13 1033.38 1033.62 1033.82 1033.95 1033.99 1033.94 1033.77 1033.52 1033.17 1032.76 1032.30 1031.82 1031.33 1030.84 1030.37 1029.90 1029.44 1028.99 1028.54 1028.09 1027.63 1027.18 1026.72 1026.27 1025.83 1025.39 1024.97
1031.81 1031.83 1031.84 1031.86 1031.87 1031.88 1031.89 1031.91 1031.93 1031.96 1032.01 1032.10 1032.22 1032.38 1032.59 1032.83 1033.08 1033.34 1033.56 1033.73 1033.82 1033.81 1033.70 1033.50 1033.21 1032.84 1032.43 1031.99 1031.53 1031.08 1030.64 1030.21 1029.80 1029.41 1029.03 1028.66 1028.30 1027.94 1027.58 1027.21 1026.84 1026.47 1026.09
1031.64 1031.67 1031.68 1031.69 1031.70 1031.70 1031.70 1031.70 1031.69 1031.70 1031.72 1031.77 1031.86 1031.99 1032.17 1032.38 1032.62 1032.87 1033.11 1033.30 1033.43 1033.48 1033.44 1033.31 1033.10 1032.81 1032.47 1032.09 1031.69 1031.29 1030.90 1030.52 1030.16 1029.81 1029.48 1029.16 1028.85 1028.55 1028.25 1027.95 1027.64 1027.32 1026.99
1031.32 1031.35 1031.38 1031.39 1031.40 1031.40 1031.40 1031.39 1031.38 1031.37 1031.38 1031.40 1031.45 1031.55 1031.68 1031.87 1032.08 1032.31 1032.55 1032.76 1032.92 1033.03 1033.06 1033.02 1032.89 1032.69 1032.44 1032.15 1031.83 1031.50 1031.16 1030.83 1030.51 1030.20 1029.90 1029.61 1029.33 1029.05 1028.78 1028.51 1028.24 1027.96 1027.68
1030.85 1030.89 1030.92 1030.95 1030.97 1030.99 1031.00 1031.01 1031.00 1030.99 1030.99 1031.00 1031.03 1031.09 1031.20 1031.34 1031.53 1031.74 1031.97 1032.19 1032.39 1032.54 1032.63 1032.66 1032.62 1032.51 1032.35 1032.15 1031.92 1031.66 1031.40 1031.13 1030.86 1030.58 1030.31 1030.04 1029.77 1029.50 1029.23 1028.98 1028.72 1028.47 1028.22
1030.23 1030.28 1030.34 1030.39 1030.43 1030.47 1030.51 1030.53 1030.55 1030.56 1030.56 1030.57 1030.59 1030.64 1030.72 1030.85 1031.01 1031.21 1031.43 1031.65 1031.87 1032.05 1032.19 1032.27 1032.30 1032.28 1032.20 1032.09 1031.94 1031.77 1031.58 1031.38 1031.17 1030.94 1030.70 1030.45 1030.19 1029.93 1029.66 1029.40 1029.15 1028.91 1028.68
1029.50 1029.58 1029.65 1029.72 1029.79 1029.86 1029.92 1029.98 1030.02 1030.06 1030.08 1030.10 1030.13 1030.18 1030.26 1030.37 1030.52 1030.71 1030.92 1031.14 1031.36 1031.56 1031.73 1031.85 1031.93 1031.97 1031.96 1031.92 1031.86 1031.77 1031.67 1031.55 1031.41 1031.25 1031.06 1030.85 1030.61 1030.36 1030.09 1029.83 1029.57 1029.34 1029.12
1028.73 1028.82 1028.90 1028.99 1029.08 1029.17 1029.26 1029.34 1029.41 1029.47 1029.51 1029.56 1029.60 1029.67 1029.75 1029.87 1030.02 1030.21 1030.41 1030.64 1030.85 1031.06 1031.23 1031.37 1031.48 1031.56 1031.60 1031.63 1031.64 1031.64 1031.63 1031.60 1031.55 1031.47 1031.35 1031.20 1031.01 1030.79 1030.54 1030.28 1030.03 1029.79 1029.58
1027.95 1028.04 1028.13 1028.22 1028.31 1028.41 1028.51 1028.60 1028.69 1028.77 1028.84 1028.90 1028.97 1029.05 1029.16 1029.29 1029.45 1029.64 1029.84 1030.06 1030.28 1030.47 1030.65 1030.80 1030.92 1031.02 1031.10 1031.18 1031.26 1031.34 1031.42 1031.50 1031.55 1031.57 1031.55 1031.48 1031.35 1031.19 1030.98 1030.74 1030.50 1030.27 1030.07
1027.20 1027.27 1027.35 1027.42 1027.51 1027.59 1027.69 1027.78 1027.87 1027.95 1028.03 1028.11 1028.20 1028.30 1028.42 1028.57 1028.75 1028.95 1029.16 1029.38 1029.59 1029.78 1029.95 1030.10 1030.24 1030.35 1030.47 1030.60 1030.74 1030.90 1031.07 1031.24 1031.40 1031.53 1031.61 1031.64 1031.61 1031.51 1031.36 1031.17 1030.96 1030.75 1030.55
1026.50 1026.53 1026.57 1026.62 1026.67 1026.73 1026.80 1026.87 1026.94 1027.02 1027.10 1027.19 1027.29 1027.40 1027.55 1027.71 1027.90 1028.11 1028.33 1028.56 1028.77 1028.97 1029.15 1029.31 1029.45 1029.60 1029.75 1029.92 1030.12 1030.35 1030.60 1030.87 1031.12 1031.35 1031.54 1031.67 1031.73 1031.72 1031.65 1031.52 1031.36 1031.19 1031.01
1025.83 1025.82 1025.81 1025.80 1025.81 1025.83 1025.87 1025.91 1025.95 1026.01 1026.08 1026.17 1026.27 1026.39 1026.55 1026.73 1026.93 1027.16 1027.39 1027.63 1027.86 1028.07 1028.27 1028.45 1028.63 1028.80 1029.00 1029.22 1029.47 1029.77 1030.09 1030.42 1030.76 1031.08 1031.35 1031.57 1031.72 1031.80 1031.81 1031.76 1031.66 1031.54 1031.40
Thickness
5614 5615 5614 5614 5614 5614 5614 5615 5615 5616 5617 5618 5619 5619 5620 5621 5621 5623 5624 5625 5627 5628 5629 5631 5632 5633 5633 5634 5635 5636 5636 5636 5637 5637 5637 5637 5638 5637 5637 5637 5637 5637 5636
5605 5605 5605 5606 5605 5605 5605 5605 5605 5606 5607 5608 5609 5610 5610 5611 5612 5613 5614 5615 5617 5618 5620 5621 5623 5624 5625 5626 5627 5628 5628 5628 5629 5629 5630 5630 5630 5630 5630 5629 5629 5629 5629
5596 5596 5595 5596 5595 5595 5595 5595 5595 5596 5596 5597 5598 5599 5601 5602 5602 5603 5605 5606 5607 5608 5610 5611 5613 5614 5616 5617 5618 5619 5619 5620 5620 5621 5622 5622 5622 5622 5622 5622 5622 5621 5621
5585 5585 5584 5584 5585 5585 5586 5586 5585 5585 5585 5586 5587 5588 5590 5591 5592 5594 5595 5596 5597 5597 5598 5600 5602 5604 5606 5607 5609 5610 5611 5611 5612 5612 5613 5613 5614 5614 5614 5614 5614 5613 5613
5574 5574 5572 5572 5574 5575 5575 5575 5575 5575 5574 5574 5576 5577 5578 5580 5582 5584 5585 5586 5586 5587 5588 5589 5591 5593 5595 5596 5598 5600 5601 5602 5602 5603 5603 5604 5605 5605 5606 5606 5606 5605 5605
5561 5562 5561 5561 5563 5563 5563 5564 5564 5564 5563 5563 5565 5565 5567 5568 5571 5572 5574 5575 5576 5576 5577 5578 5579 5581 5583 5585 5587 5589 5590 5591 5592 5593 5594 5595 5595 5596 5597 5597 5598 5597 5597
5549 5550 5549 5549 5550 5551 5552 5552 5553 5552 5551 5552 5552 5552 5554 5557 5559 5561 5563 5564 5565 5565 5566 5566 5567 5569 5570 5573 5575 5577 5579 5580 5581 5583 5584 5585 5586 5586 5587 5588 5589 5589 5588
5536 5537 5537 5538 5538 5539 5539 5540 5540 5539 5539 5541 5541 5540 5540 5541 5545 5548 5550 5552 5553 5554 5555 5555 5555 5557 5558 5560 5562 5565 5567 5569 5571 5572 5574 5575 5576 5577 5577 5578 5580 5580 5580
5523 5524 5525 5525 5526 5527 5527 5527 5527 5528 5527 5528 5529 5529 5529 5530 5530 5533 5537 5538 5540 5541 5542 5543 5544 5545 5547 5548 5550 5552 5555 5557 5559 5561 5563 5564 5565 5567 5568 5569 5570 5571 5571
5510 5511 5512 5513 5513 5514 5514 5514 5514 5514 5515 5515 5515 5517 5518 5519 5518 5519 5521 5524 5526 5527 5529 5530 5532 5533 5535 5537 5538 5540 5542 5545 5548 5550 5551 5553 5555 5556 5558 5559 5560 5561 5562
5496 5497 5498 5499 5500 5500 5501 5500 5500 5500 5501 5502 5502 5502 5504 5505 5506 5506 5507 5509 5511 5514 5515 5517 5519 5521 5522 5524 5526 5528 5531 5533 5536 5538 5540 5542 5544 5546 5547 5549 5550 5551 5552
5484 5484 5486 5486 5487 5487 5487 5487 5487 5487 5488 5488 5488 5489 5490 5491 5492 5492 5493 5494 5496 5499 5502 5505 5507 5509 5510 5512 5514 5516 5518 5521 5523 5525 5528 5530 5533 5535 5536 5538 5539 5540 5541
5471 5472 5473 5473 5473 5474 5474 5474 5473 5473 5473 5474 5474 5475 5477 5478 5479 5479 5478 5479 5481 5485 5489 5491 5494 5496 5498 5499 5501 5504 5506 5508 5510 5513 5515 5518 5520 5523 5525 5526 5527 5528 5529
5459 5459 5459 5459 5459 5460 5460 5460 5460 5460 5459 5459 5460 5461 5462 5463 5464 5466 5465 5464 5465 5469 5473 5477 5480 5483 5485 5486 5488 5490 5493 5495 5498 5500 5502 5505 5508 5510 5512 5514 5515 5516 5517
5446 5446 5446 5445 5446 5446 5446 5446 5446 5446 5446 5446 5446 5447 5447 5448 5449 5451 5451 5452 5452 5454 5460 5464 5466 5470 5470 5472 5474 5476 5479 5482 5484 5487 5489 5492 5494 5496 5498 5501 5503 5504 5505
5432 5432 5432 5432 5432 5432 5433 5433 5433 5432 5432 5433 5433 5433 5434 5434 5435 5436 5437 5438 5440 5442 5445 5451 5452 5454 5456 5457 5459 5462 5465 5468 5471 5474 5476 5479 5481 5483 5485 5487 5489 5491 5492
5419 5419 5419 5419 5419 5419 5419 5419 5419 5419 5419 5419 5420 5420 5421 5421 5421 5422 5423 5425 5426 5427 5430 5436 5438 5440 5441 5443 5445 5448 5451 5454 5457 5460 5462 5465 5467 5469 5471 5473 5475 5477 5479
5405 5406 5406 5406 5406 5406 5406 5406 5405 5406 5406 5406 5406 5407 5407 5408 5408 5408 5409 5411 5413 5414 5415 5419 5423 5425 5427 5429 5431 5434 5437 5439 5442 5446 5448 5451 5453 5456 5458 5460 5462 5464 5466
5391 5392 5392 5393 5393 5393 5393 5393 5393 5393 5393 5393 5394 5394 5394 5394 5395 5395 5396 5398 5399 5402 5402 5404 5409 5411 5413 5415 5417 5420 5422 5425 5428 5431 5434 5437 5440 5442 5445 5447 5449 5451 5453
5378 5378 5379 5379 5379 5379 5380 5380 5380 5380 5380 5380 5381 5381 5381 5381 5382 5383 5383 5384 5386 5388 5389 5390 5394 5397 5398 5400 5402 5405 5408 5410 5414 5417 5420 5423 5426 5428 5432 5434 5437 5439 5440
5363 5364 5364 5365 5365 5365 5366 5366 5366 5367 5366 5366 5367 5367 5368 5368 5369 5370 5372 5373 5373 5374 5375 5377 5379 5382 5384 5386 5388 5391 5393 5396 5399 5402 5405 5409 5412 5415 5417 5420 5423 5425 5427
5348 5348 5349 5350 5350 5351 5352 5354 5354 5353 5353 5352 5352 5353 5354 5354 5356 5357 5359 5360 5361 5361 5363 5363 5366 5369 5373 5374 5376 5377 5379 5381 5385 5390 5390 5395 5397 5400 5404 5406 5409 5412 5414
5334 5333 5334 5335 5336 5337 5339 5340 5340 5340 5339 5338 5338 5338 5339 5340 5341 5343 5344 5346 5348 5349 5352 5353 5354 5358 5360 5362 5363 5364 5365 5367 5372 5375 5375 5380 5383 5386 5390 5393 5395 5398 5400
5320 5319 5320 5321 5322 5323 5324 5325 5326 5325 5325 5325 5325 5325 5325 5327 5327 5329 5330 5332 5334 5336 5338 5340 5343 5347 5348 5348 5349 5351 5353 5354 5357 5359 5361 5364 5369 5372 5376 5379 5381 5384 5386
5306 5306 5307 5307 5307 5309 5310 5312 5312 5311 5312 5312 5311 5311 5311 5313 5315 5316 5317 5319 5321 5323 5324 5326 5329 5331 5334 5335 5335 5336 5337 5338 5342 5345 5347 5349 5355 5357 5361 5365 5367 5370 5371
5293 5292 5293 5293 5294 5295 5296 5298 5298 5298 5298 5299 5298 5298 5299 5300 5302 5302 5303 5304 5307 5310 5311 5313 5316 5318 5320 5321 5323 5324 5325 5325 5328 5331 5334 5335 5339 5341 5346 5352 5354 5355 5356